Content
SEND FEEDBACK

Daily
Averages
Monthly
Summary
Turkmenistan

ASHGABAT, TURKMENISTAN


Home > Asia > Turkmenistan
Elevation: 775 feet     Latitude: 37 58N     Longitude: 058 20E

WEATHER
 
SELECT A DAY
Number of Records: 177,527;   Date Range: 3/15/97 - 9/16/14
 
SHARE

PRINT THIS DATA

[ ← Previous Day ]
WEATHER ALMANAC - JANUARY 31, 2013
[ Next Day → ]
[ °C ]   °F
Weather ElementAverageHighLow
Temperature45.6 °F50 °F (1:00 pm)42.8 °F (3:00 am)
Dewpoint41 °F44.6 °F (5:00 pm)37.4 °F (5:00 am)
Humidity82.6 %93 % (1:00 am)68 % (2:00 pm)
Barometer29.97 in30.07 in (11:00 am)29.83 in (10:00 pm)
Wind Speed7.6 mph15.7 mph (10:00 am)
Weather ElementAverage
Visibility5.7 mi
Wind DirectionESE (102.2 °)

Weather ElementTotal
Precipitation---
Heating Degree Days18.6 (Base 65)
Averaged from 37 records on January 31, 2013
WEATHER CONDITIONS BREAKOUT
WIND DIRECTION BREAKOUT
WEATHER BY HOUR - JANUARY 31, 2013
[ °C ]   °F
Local TimeTemperatureDewpointHumidityBarometerVisibilityWind DirectionWind SpeedGust SpeedPrecipitationEventsConditions
1:00 AM44.6 °F42.8 °F93 %29.98 in6.2 miEast (100°)4.5 mphMostly Cloudy
2:00 AM45.0 °F41.0 °F82 %30.01 in6.0 miNNE (30°)4.5 mphOvercast
2:00 AM44.6 °F41.0 °F87 %29.98 in6.2 miENE (60°)6.7 mphOvercast
3:00 AM42.8 °F39.2 °F87 %30.01 in6.2 miEast (100°)4.5 mphOvercast
4:00 AM42.8 °F39.2 °F87 %30.04 in6.2 miESE (110°)4.5 mphOvercast
5:00 AM44.0 °F39.0 °F75 %30.04 in6.0 miEast (90°)6.7 mphOvercast
5:00 AM42.8 °F37.4 °F81 %30.01 in6.2 miEast (100°)6.7 mphOvercast
5:30 AM42.8 °F37.4 °F81 %30.01 in6.2 miESE (110°)8.9 mphOvercast
6:00 AM42.8 °F39.2 °F87 %30.01 in6.2 miEast (100°)6.7 mphOvercast
7:00 AM42.8 °F39.2 °F87 %30.04 in6.2 miEast (100°)6.7 mphOvercast
7:30 AM42.8 °F39.2 °F87 %30.04 in6.2 miEast (100°)8.9 mphOvercast
8:00 AM43.0 °F39.0 °F79 %30.06 in6.0 miEast (100°)6.7 mphOvercast
8:00 AM42.8 °F39.2 °F87 %30.04 in6.2 miEast (100°)8.9 mphOvercast
9:00 AM44.6 °F39.2 °F81 %30.04 in6.2 miESE (110°)6.7 mphOvercast
9:30 AM44.6 °F41.0 °F87 %30.04 in6.2 miESE (120°)11.2 mphOvercast
10:00 AM44.6 °F39.2 °F81 %30.04 in6.2 miSE (130°)15.7 mphOvercast
11:00 AM45.0 °F40.0 °F75 %30.07 in6.0 miEast (100°)13.4 mphOvercast
11:00 AM44.6 °F41.0 °F87 %30.04 in6.2 miESE (120°)15.7 mphOvercast
11:30 AM46.4 °F41.0 °F81 %30.01 in6.2 miESE (120°)13.4 mphOvercast
12:00 PM48.2 °F41.0 °F76 %30.01 in6.2 miESE (120°)13.4 mphOvercast
1:00 PM50.0 °F42.8 °F76 %29.98 in4.3 miEast (100°)8.9 mphOvercast
2:00 PM50.0 °F43.0 °F68 %29.97 in6.0 miEast (90°)8.9 mphOvercast
2:00 PM50.0 °F42.8 °F76 %29.95 in5.0 miEast (100°)11.2 mphOvercast
3:00 PM50.0 °F42.8 °F76 %29.92 in5.0 miEast (100°)11.2 mphOvercast
4:00 PM50.0 °F42.8 °F76 %29.92 in5.0 miEast (100°)11.2 mphOvercast
5:00 PM50.0 °F44.0 °F71 %29.94 in6.0 miEast (90°)11.2 mphOvercast
5:00 PM50.0 °F44.6 °F82 %29.89 in4.3 miEast (100°)11.2 mphOvercast
6:00 PM50.0 °F42.8 °F76 %29.89 in4.3 miEast (90°)8.9 mphOvercast
7:00 PM48.2 °F42.8 °F82 %29.89 in3.7 miEast (90°)4.5 mphOvercast
8:00 PM46.0 °F42.0 °F83 %29.91 in6.0 miENE (70°)4.5 mphScattered Clouds
8:00 PM46.4 °F42.8 °F87 %29.89 inEast (80°)4.5 mphMostly Cloudy
9:00 PM44.6 °F41.0 °F87 %29.86 in2.5 miVariable2.2 mphOvercast
9:30 PM44.6 °F42.8 °F93 %29.86 inCalmOvercast
10:00 PM44.6 °F41.0 °F87 %29.83 inCalmOvercast
10:30 PM44.6 °F41.0 °F87 %29.83 inWSW (240°)4.5 mphOvercast
11:00 PM43.0 °F41.0 °F90 %29.86 in6.0 miWest (270°)2.2 mphOvercast
11:00 PM44.6 °F42.8 °F93 %29.83 inWSW (240°)2.2 mphOvercast
Hourly data recorded from UTAA, located miles away from Ashgabat, Turkmenistan







STORIES FROM OUR PARTNERS